IU1DOF-3 Weather Reports


Display with metric or nautical units.
time (UTC)temp
F
wind
direction
speed
MPH
gust
MPH
rain 1hr
in
rain 24hr
in
rain mn
in
humidity
%
barometer
mb
20260507111209 61 228 0.0 1.0 0.00 0.00 0.00 70 1011.8
20260507110201 61 243 0.0 1.0 0.00 0.00 0.00 70 1011.8
20260507105153 61 180 2.0 3.0 0.00 0.00 0.00 67 1012.1
20260507104145 60 122 1.0 3.0 0.00 0.00 0.00 71 1011.9
20260507103137 59 263 1.0 2.0 0.00 0.00 0.00 72 1012.0
20260507102130 57 245 2.0 3.0 0.00 0.00 0.00 74 1012.2
20260507101121 60 264 0.0 2.0 0.00 0.00 0.00 72 1011.9
20260507100058 58 256 0.0 1.0 0.00 0.00 0.00 75 1012.0
20260507095039 60 254 0.0 1.0 0.00 0.00 0.00 74 1011.7
20260507094025 58 251 2.0 4.0 0.00 0.00 0.00 72 1011.7
20260507093002 59 248 0.0 1.0 0.00 0.00 0.00 75 1011.7
20260507091938 59 235 2.0 5.0 0.00 0.00 0.00 75 1011.6
20260507090914 58 203 1.0 2.0 0.00 0.00 0.00 75 1011.7
20260507085906 57 242 2.0 3.0 0.00 0.00 0.00 76 1011.4
20260507084842 57 209 4.0 5.0 0.00 0.00 0.00 76 1011.5
20260507083833 57 231 3.0 4.0 0.00 0.00 0.00 76 1011.4
20260507082825 55 254 5.0 6.0 0.00 0.00 0.00 78 1011.4
20260507081802 55 244 3.0 3.0 0.00 0.00 0.00 77 1011.4
20260507080753 56 248 4.0 5.0 0.00 0.00 0.00 75 1011.4
20260507075740 55 253 0.0 0.0 0.00 0.00 0.00 76 1011.6
20260507074722 56 244 0.0 0.0 0.00 0.00 0.00 73 1011.7
20260507073658 55 248 0.0 1.0 0.00 0.00 0.00 69 1011.6
20260507072640 54 278 0.0 1.0 0.00 0.00 0.00 71 1011.7
20260507071626 52 282 0.0 0.0 0.00 0.00 0.00 77 1011.3
20260507070602 49 283 0.0 0.0 0.00 0.00 0.00 83 1011.5
20260507065539 47 285 0.0 0.0 0.00 0.00 0.00 82 1011.6
20260507064530 47 286 0.0 0.0 0.00 0.00 0.00 81 1011.5
20260507063506 48 286 0.0 0.0 0.00 0.00 0.00 80 1011.5
20260507062443 48 285 0.0 0.0 0.00 0.00 0.00 81 1011.6
20260507061418 48 295 1.0 1.0 0.00 0.00 0.00 77 1011.5
20260507060355 45 308 0.0 0.0 0.00 0.00 0.00 84 1011.4
20260507055340 43 328 0.0 1.0 0.00 0.00 0.00 89 1011.4
20260507054323 42 313 0.0 0.0 0.00 0.00 0.00 95 1011.2
20260507053258 42 309 0.0 0.0 0.00 0.00 0.00 96 1011.1
20260507052240 41 309 0.0 0.0 0.00 0.00 0.00 96 1011.2
20260507051225 41 311 0.0 0.0 0.00 0.00 0.00 96 1011.0
20260507050202 40 297 0.0 0.0 0.00 0.00 0.00 98 1010.7
20260507045139 40 302 0.0 0.0 0.00 0.00 0.00 98 1010.7
20260507044114 40 302 0.0 0.0 0.00 0.00 0.00 97 1010.7
20260507043050 40 301 0.0 0.0 0.00 0.00 0.00 97 1010.5
20260507042040 40 302 0.0 0.0 0.00 0.00 0.00 96 1010.6
20260507041018 41 302 2.0 2.0 0.00 0.00 0.00 96 1010.2
20260507035954 41 302 0.0 0.0 0.00 0.00 0.00 97 1010.2
20260507034940 41 302 0.0 0.0 0.00 0.00 0.00 98 1010.3
20260507033922 41 302 0.0 0.0 0.00 0.00 0.00 97 1010.4
20260507032858 42 302 0.0 0.0 0.00 0.00 0.00 97 1010.3
20260507031839 42 302 0.0 0.0 0.00 0.00 0.00 97 1010.2
20260507030826 42 302 0.0 0.0 0.00 0.00 0.00 97 1010.5
20260507025802 41 302 0.0 0.0 0.00 0.00 0.00 97 1010.4
20260507024738 42 296 0.0 0.0 0.00 0.00 0.00 97 1010.1
20260507023714 42 309 0.0 0.0 0.00 0.00 0.00 97 1010.1
20260507022650 42 308 0.0 0.0 0.00 0.00 0.00 98 1010.1
20260507021640 42 309 0.0 0.0 0.00 0.00 0.00 98 1010.0
20260507020617 42 310 0.0 0.0 0.00 0.00 0.00 98 1010.0
20260507015554 42 309 0.0 0.0 0.00 0.00 0.00 97 1009.9
20260507014540 42 309 0.0 0.0 0.00 0.00 0.00 97 1010.0
20260507013522 43 312 0.0 0.0 0.00 0.00 0.00 97 1010.0
20260507012459 42 316 0.0 0.0 0.00 0.00 0.00 97 1010.0
20260507011433 44 289 1.0 2.0 0.00 0.00 0.00 97 1009.8
20260507010410 43 313 0.0 0.0 0.00 0.00 0.00 97 1010.1
20260507005346 44 334 1.0 2.0 0.00 0.00 0.00 99 1010.0
20260507004343 44 302 0.0 0.0 0.00 0.00 0.00 99 1010.1
20260507003314 44 288 0.0 0.0 0.00 0.00 0.00 99 1010.0
20260507002250 44 288 0.0 0.0 0.00 0.00 0.00 99 1010.0
20260507001241 45 289 0.0 0.0 0.00 0.00 0.00 98 1009.8
20260507000219 45 289 0.0 0.0 0.00 0.00 0.00 98 1009.7
20260506235154 45 289 0.0 0.0 0.00 0.00 0.00 98 1009.6
20260506234139 46 287 0.0 0.0 0.00 0.00 0.00 98 1009.7
20260506233122 46 286 0.0 0.0 0.00 0.00 0.00 98 1010.1
20260506232057 46 288 0.0 0.0 0.00 0.00 0.00 98 1009.8
20260506231039 46 289 0.0 0.0 0.00 0.00 0.00 98 1009.7
20260506230026 46 289 0.0 0.0 0.00 0.00 0.00 98 1009.7
20260506225002 46 290 0.0 0.0 0.00 0.00 0.20 98 1009.6
20260506223938 45 289 0.0 0.0 0.00 0.00 0.20 97 1009.4
20260506222914 46 289 0.0 0.0 0.00 0.00 0.20 97 1009.5
20260506221850 47 289 0.0 0.0 0.00 0.00 0.20 96 1009.5
20260506220839 47 289 0.0 0.0 0.00 0.00 0.20 96 1009.2
20260506215818 48 292 0.0 0.0 0.00 0.00 0.20 95 1009.1
20260506214755 48 290 1.0 2.0 0.00 0.00 0.20 95 1009.2
20260506213740 48 313 0.0 1.0 0.00 0.00 0.20 95 1009.1
20260506212722 48 302 0.0 0.0 0.00 0.00 0.20 95 1009.0
20260506211658 49 309 2.0 2.0 0.00 0.00 0.20 96 1008.9
20260506210641 49 290 0.0 1.0 0.00 0.00 0.20 95 1008.7
20260506205626 49 290 0.0 0.0 0.00 0.00 0.20 94 1008.9
20260506204602 50 302 2.0 2.0 0.00 0.00 0.20 94 1008.9
20260506203553 50 296 1.0 1.0 0.00 0.00 0.20 93 1008.9
20260506202540 50 303 2.0 2.0 0.00 0.00 0.20 91 1008.5
20260506201522 50 302 2.0 2.0 0.00 0.00 0.20 91 1008.4
20260506200458 51 301 0.0 1.0 0.00 0.00 0.20 90 1008.1
20260506195440 51 294 2.0 3.0 0.00 0.00 0.20 90 1008.0
20260506194426 52 300 2.0 2.0 0.00 0.00 0.20 89 1007.7
20260506193402 52 299 0.0 1.0 0.00 0.00 0.20 88 1007.6
20260506192338 52 301 2.0 2.0 0.00 0.00 0.20 87 1007.3
20260506191314 53 297 3.0 3.0 0.00 0.00 0.20 86 1007.2
20260506190250 54 289 4.0 4.0 0.00 0.00 0.20 86 1007.0
20260506185240 53 298 2.0 3.0 0.00 0.00 0.20 85 1006.8
20260506184218 53 289 1.0 2.0 0.00 0.00 0.20 82 1006.3
20260506183154 53 309 3.0 3.0 0.00 0.00 0.20 79 1006.3
20260506182141 54 312 4.0 4.0 0.00 0.00 0.20 74 1006.2
20260506181122 55 308 2.0 3.0 0.00 0.00 0.20 74 1005.9
20260506180059 59 312 1.0 2.0 0.00 0.00 0.20 70 1005.5
20260506175040 59 304 0.0 0.0 0.00 0.00 0.20 70 1005.4
20260506174026 62 285 1.0 2.0 0.00 0.00 0.20 73 1005.5
20260506173002 65 310 0.0 1.0 0.00 0.00 0.20 66 1005.3
20260506171938 65 239 0.0 0.0 0.00 0.00 0.20 65 1005.2
20260506170914 66 268 1.0 2.0 0.00 0.00 0.20 66 1005.1
20260506165851 65 204 0.0 1.0 0.00 0.00 0.20 68 1004.8
20260506164840 66 191 1.0 2.0 0.00 0.00 0.20 66 1005.1
20260506163819 66 266 2.0 3.0 0.00 0.00 0.20 64 1004.9
20260506162754 66 252 0.0 1.0 0.00 0.00 0.20 64 1005.0
20260506161740 67 268 4.0 4.0 0.00 0.00 0.20 61 1004.9
20260506160722 67 134 1.0 1.0 0.00 0.00 0.20 62 1004.7
20260506155659 68 147 0.0 1.0 0.00 0.00 0.20 63 1004.6
20260506154640 66 246 1.0 2.0 0.00 0.00 0.20 67 1004.5
20260506153626 67 263 5.0 6.0 0.00 0.00 0.20 63 1004.8
20260506152602 69 351 1.0 2.0 0.00 0.00 0.20 50 1004.7
20260506151538 68 133 4.0 5.0 0.00 0.00 0.20 33 1004.9
20260506150514 67 46 2.0 4.0 0.00 0.00 0.20 38 1004.7
20260506145450 67 9 2.0 3.0 0.00 0.00 0.20 43 1004.9
20260506144440 65 308 3.0 3.0 0.00 0.00 0.20 54 1004.8
20260506143419 64 333 0.0 0.0 0.00 0.00 0.20 45 1004.8
20260506142354 58 310 0.0 1.0 0.00 0.00 0.20 65 1004.9
20260506141340 57 310 1.0 2.0 0.00 0.00 0.20 77 1005.0
20260506140323 61 307 2.0 2.0 0.00 0.00 0.20 70 1004.9
20260506135259 61 325 1.0 2.0 0.00 0.00 0.20 55 1005.0
20260506134239 64 194 1.0 2.0 0.00 0.00 0.20 38 1005.0
20260506133227 63 42 4.0 5.0 0.00 0.00 0.20 41 1005.0
20260506132203 63 22 2.0 4.0 0.00 0.00 0.20 44 1005.1
20260506131140 64 99 6.0 9.0 0.00 0.00 0.20 42 1005.3
20260506130130 63 21 6.0 8.0 0.00 0.00 0.20 40 1005.3
20260506125106 64 123 5.0 9.0 0.00 0.00 0.20 41 1005.2
20260506124059 64 35 2.0 4.0 0.00 0.00 0.20 43 1005.2
20260506123035 63 27 1.0 2.0 0.00 0.00 0.20 44 1005.0
20260506122027 63 129 4.0 5.0 0.00 0.00 0.20 42 1005.1
20260506121003 65 107 2.0 3.0 0.00 0.00 0.20 46 1005.0
20260506115941 66 5 2.0 4.0 0.00 0.00 0.20 39 1004.8
20260506114932 66 277 1.0 2.0 0.00 0.00 0.20 48 1005.1
20260506113923 66 17 4.0 6.0 0.00 0.00 0.20 37 1005.1
20260506112859 65 2 1.0 2.0 0.00 0.00 0.20 46 1004.9